AirNav   Air Wisconsin pilot careers
 
 663 users online  

25AL Lucas Army Heliport
Fort Rucker/Goodman, Alabama, USA

GOING TO FORT RUCKER/GOODMAN?


FAA INFORMATION EFFECTIVE 09 NOVEMBER 2017

Location

FAA Identifier: 25AL
Lat/Long: 31-16-11.5500N / 086-02-27.3800W
31-16.192500N / 086-02.456333W
31.2698750 / -86.0409389
(estimated)
Elevation: 336 ft. / 102 m (estimated)
Variation: 02W (2000)
From city: 2 miles SW of central business district of the associated city
Time zone: UTC -6 (UTC -5 during Daylight Saving Time)
Zip code: 36323

Heliport Operations

Heliport use: Private use. Permission required prior to landing
Activation date: 05/2002
Control tower: no
ARTCC: JACKSONVILLE CENTER
FSS: ANNISTON FLIGHT SERVICE STATION
NOTAMs facility: OZR (NOTAM-D service available)
Attendance: UNATNDD EXCP DURG TRNG
Segmented circle: no

Heliport Communications

OPNS: 126.2
WX AWOS-3 at EDN (7 nm E): 118.9 (334-347-3524)
WX ASOS at 79J (18 nm W): 134.875 (334-222-9770)

Nearby radio navigation aids

VOR radial/distance  VOR name  Freq  Var
EDNr260/(7.3)ENTERPRISE VOR116.6003W
OZRr273/16.1CAIRNS VOR/DME111.2003W
HEYr256/(20.9)HANCHEY VOR110.6003W
RRSr266/31.3WIREGRASS VORTAC111.6002E

 
NDB name  Hdg/Dist  Freq  Var  ID
BOLL WEEVIL219/5.235203WBVG -... ...- --.
RUCKR283/11.821200EOZ --- --..
LOWE253/16.226903WLOR .-.. --- .-.
JUDD099/18.126402WJUY .--- ..- -.--
HANCHEY255/20.822103WHYE .... -.-- .
BLOOD178/33.836504WTOI - --- ..

Heliport Services

Runway Information

Helipad H1

Dimensions: 1600 x 75 ft. / 488 x 23 m
Surface: asphalt
Traffic pattern: leftleft

Helipad H2

Dimensions: 1600 x 75 ft. / 488 x 23 m
Surface: asphalt
Traffic pattern: leftleft

Helipad H3

Dimensions: 1600 x 75 ft. / 488 x 23 m
Surface: asphalt
Traffic pattern: leftleft

Helipad H4

Dimensions: 1600 x 75 ft. / 488 x 23 m
Surface: asphalt
Traffic pattern: leftleft

Helipad H5

Dimensions: 1600 x 75 ft. / 488 x 23 m
Surface: asphalt
Traffic pattern: leftleft

Helipad H6

Dimensions: 1600 x 75 ft. / 488 x 23 m
Surface: asphalt
Traffic pattern: leftleft

Helipad H7

Dimensions: 1600 x 75 ft. / 488 x 23 m
Surface: turf
Traffic pattern: leftleft

Heliport Ownership and Management from official FAA records

Ownership: U.S. Army
Owner: US ARMY AVIATION CTR & FORT RUCKER
NOVOSEL ST
FORT RUCKER, AL 36362
Phone 334-255-9764
Manager: JACK A HOLMES
USAACE G3 AIR,
FORT RUCKER, AL 36362
Phone 334-255-9764

Instrument Procedures

There are no published instrument procedures at 25AL.

Some nearby airports with instrument procedures:

KEDN - Enterprise Municipal Airport (7 nm E)
KLOR - Lowe Army Heliport (Fort Rucker) (16 nm E)
33J - Geneva Municipal Airport (16 nm SE)
KOZR - Cairns Army Airfield (Fort Rucker) (17 nm E)
79J - South Alabama Regional Airport at Bill Benton Field (18 nm W)
0J4 - Florala Municipal Airport (19 nm SW)
 
Loc | Ops | Rwys | IFR | FBO | Links
Com | Nav | Svcs | Stats | Notes


 
Area around 25AL (Lucas Army Heliport)
 
Road maps at: MapQuest Bing Google
 
Aerial photo
No photo
 
Sectional chart

 
Airport distance calculator
Flying to Lucas Army Heliport? Find the distance to fly.

From to 25AL

Sunrise and sunset
Times for 23-Nov-2017
 Local
(UTC-6)
 Zulu
(UTC)
Morning civil twilight05:5311:53
Sunrise06:1912:19
Sunset16:4222:42
Evening civil twilight17:0823:08

Current date and time
Zulu (UTC)  24-Nov-2017 01:45:36
Local (UTC-6)  23-Nov-2017 19:45:36
 
METAR
KEDN 
7nm E 
240135Z AUTO 35004KT 10SM CLR 12/07 A2998 RMK AO2 T01160067
KSXS 
11nm NE 
240058Z AUTO 36006KT 10SM M 13/07 A2997 RMK AO2 SLP151 T01340070 $
KLOR 
16nm E 
240058Z AUTO 00000KT 10SM FEW036 13/09 A2997 RMK AO2 SLP132 T01250085
KOZR 
17nm E 
240134Z AUTO 33006KT 10SM SCT036 13/07 A2998 RMK AO2 SLP154
K79J 
19nm W 
240056Z AUTO 32004KT 10SM CLR 12/03 A2998 RMK AO2 SLP150 T01170028
K0J4 
19nm SW 
240058Z AUTO 35004KT 10SM CLR 12/04 A3000 RMK AO2 SLP158 T01170044 $
TAF
KOZR 
17nm E 
240000Z 2400/2506 33006KT 9999 SCT050 QNH2992INS BECMG 2405/2406 03006KT 9999 BKN030 QNH2996INS BECMG 2411/2412 03006KT 9999 SCT030 QNH2999INS BECMG 2417/2418 07009KT 9999 SKC QNH2992INS TX21/2421Z TN08/2412Z
NOTAMs
Click for the latest NOTAMs
NOTAMs are issued by the DoD/FAA and will open in a separate window not controlled by AirNav.

 

 
 

Would you like to see your business listed on this page?

 If your business provides an interesting product or service to pilots, flight crews, aircraft, or users of the Lucas Army Heliport, you should consider listing it here.  To start the listing process, click on the button below
 
Add a business
 

Other Pages about Lucas Army Heliport

Update a link
 
Copyright © AirNav, LLC. All rights reserved. Privacy Policy  Contact